Location: Carlisle
(34.5501°N, 84.5969°W)
Time: 21:42:17
(UTC+00:00)

Hubble Space Telescope - Pass Details

Date: 02 December 2021
Orbit: 534 x 538 km, 28.5° (Epoch: 18 January)

Event Time Altitude Azimuth Distance (km) Brightness Sun altitude
Exits shadow 11:49:28 - 252° (WSW) 2,263 3.5 -8.1°
Reaches altitude 10° 11:51:16 10° 236° (SW) 1,773 3.1 -7.8°
Maximum altitude 11:53:39 15° 200° (SSW) 1,476 3.0 -7.3°
Drops below altitude 10° 11:56:03 10° 164° (SSE) 1,771 4.0 -6.8°
Sets 11:59:05 0° 141° (SE) 2,660 5.5 -6.3°
